EW5586 Weather Reports


Display with metric or nautical units.
time (UTC)temp
F
wind
direction
speed
MPH
gust
MPH
rain 1hr
in
rain 24hr
in
rain mn
in
humidity
%
barometer
mb
20260504213512 61 218 13.0 19.0 0.00 0.01 0.01 60 1002.2
20260504213011 60 216 13.0 20.0 0.00 0.01 0.01 61 1002.3
20260504212511 61 218 13.0 20.0 0.00 0.01 0.01 61 1002.3
20260504212005 60 206 13.0 19.0 0.00 0.01 0.01 61 1002.3
20260504211500 60 197 13.0 18.0 0.00 0.01 0.01 61 1002.3
20260504210953 60 220 14.0 19.0 0.00 0.01 0.01 61 1002.4
20260504210447 60 221 14.0 19.0 0.00 0.01 0.01 62 1002.5
20260504205942 60 207 14.0 22.0 0.00 0.01 0.01 62 1002.5
20260504205435 60 179 14.0 21.0 0.00 0.01 0.01 62 1002.6
20260504204929 60 211 14.0 22.0 0.00 0.01 0.01 62 1002.7
20260504204424 61 209 15.0 22.0 0.00 0.01 0.01 60 1002.7
20260504203416 59 207 14.0 20.0 0.00 0.01 0.01 64 1002.7
20260504202916 59 206 13.0 19.0 0.00 0.01 0.01 64 1002.7
20260504202416 58 213 12.0 19.0 0.00 0.01 0.01 65 1002.7
20260504201916 58 205 13.0 18.0 0.00 0.01 0.01 65 1002.9
20260504200916 60 220 14.0 22.0 0.00 0.01 0.01 61 1002.9
20260504200416 59 250 14.0 21.0 0.00 0.01 0.01 62 1003.0
20260504195915 59 190 14.0 22.0 0.00 0.01 0.01 61 1003.0
20260504195417 60 221 15.0 22.0 0.00 0.01 0.01 60 1003.1
20260504194916 62 205 15.0 22.0 0.00 0.01 0.01 56 1003.2
20260504194415 61 214 15.0 22.0 0.00 0.01 0.01 56 1003.2
20260504193415 62 0 14.0 23.0 0.00 0.01 0.01 55 1003.4
20260504192916 61 234 14.0 23.0 0.00 0.01 0.01 57 1003.5
20260504191915 59 219 15.0 24.0 0.00 0.01 0.01 61 1003.6
20260504191409 59 194 16.0 25.0 0.00 0.01 0.01 60 1003.5
20260504190903 61 203 18.0 27.0 0.00 0.01 0.01 55 1003.6
20260504190357 62 184 19.0 28.0 0.00 0.01 0.01 55 1003.6
20260504185851 62 220 19.0 30.0 0.00 0.01 0.01 53 1003.7
20260504185345 62 183 18.0 30.0 0.00 0.01 0.01 55 1003.8
20260504184839 61 183 14.0 28.0 0.00 0.01 0.01 56 1003.7
20260504183827 59 172 14.0 22.0 0.00 0.01 0.01 61 1003.9
20260504182815 58 196 16.0 24.0 0.00 0.01 0.01 64 1003.9
20260504182309 58 207 19.0 28.0 0.00 0.01 0.01 63 1003.9
20260504181803 59 222 18.0 28.0 0.00 0.01 0.01 60 1003.9
20260504180753 58 0 18.0 25.0 0.00 0.01 0.01 60 1004.1
20260504180245 58 0 18.0 30.0 0.00 0.01 0.01 61 1004.2
20260504175739 58 0 19.0 30.0 0.00 0.01 0.01 61 1004.2
20260504175233 58 216 19.0 27.0 0.00 0.01 0.01 62 1004.2
20260504174727 57 196 20.0 32.0 0.00 0.01 0.01 64 1004.3
20260504173715 56 191 18.0 25.0 0.00 0.01 0.01 65 1004.4
20260504173210 56 210 18.0 26.0 0.00 0.01 0.01 66 1004.5
20260504172704 56 194 18.0 31.0 0.00 0.01 0.01 66 1004.5
20260504172158 57 195 19.0 31.0 0.00 0.01 0.01 65 1004.5
20260504171651 57 204 19.0 26.0 0.00 0.01 0.01 64 1004.7
20260504171145 56 199 19.0 27.0 0.00 0.01 0.01 67 1004.6
20260504170639 56 203 20.0 27.0 0.00 0.01 0.01 66 1004.7
20260504150921 53 232 15.0 23.0 0.00 0.01 0.01 70 1005.2
20260504140837 51 213 11.0 17.0 0.00 0.01 0.01 77 1005.4
20260504140340 51 213 11.0 17.0 0.00 0.01 0.01 77 1005.4
20260504130326 48 217 12.0 17.0 0.00 0.01 0.01 83 1005.6
20260504120259 49 192 9.0 15.0 0.00 0.01 0.01 81 1005.5
20260504110251 48 235 6.0 12.0 0.00 0.01 0.01 79 1005.2
20260504100540 0 0.0 0.0 0.00 0.01 0.01 1004.9
20260504082003 46 227 7.0 10.0 0.00 0.01 0.01 93 1004.9
20260504081503 46 192 6.0 10.0 0.00 0.01 0.01 93 1004.9
20260504081001 46 207 6.0 10.0 0.00 0.01 0.01 93 1004.9
20260504080458 46 205 6.0 9.0 0.00 0.01 0.01 93 1004.9
20260504050336 47 209 6.0 9.0 0.00 0.00 0.00 85 1006.9
20260504045830 48 196 5.0 9.0 0.00 0.00 0.00 83 1006.9
20260504045324 48 211 4.0 8.0 0.00 0.00 0.00 81 1007.0
20260504044312 48 240 4.0 10.0 0.00 0.00 0.00 80 1007.1
20260504042755 48 209 5.0 11.0 0.00 0.00 0.00 79 1007.0
20260504042248 47 229 5.0 11.0 0.00 0.00 0.00 79 1007.0
20260504041742 47 209 5.0 11.0 0.00 0.00 0.00 79 1007.0
20260504041236 48 225 5.0 8.0 0.00 0.00 0.00 78 1007.0
20260504040730 48 0 5.0 9.0 0.00 0.00 0.00 78 1007.2
20260504040224 48 234 6.0 13.0 0.00 0.00 0.00 78 1007.2
20260504035718 48 217 7.0 16.0 0.00 0.00 0.00 77 1007.1
20260504035212 48 215 6.0 16.0 0.00 0.00 0.00 77 1007.0
20260504034706 48 211 4.0 11.0 0.00 0.00 0.00 77 1007.0
20260504034201 48 217 6.0 14.0 0.00 0.00 0.00 76 1007.0
20260504033148 47 216 5.0 11.0 0.00 0.00 0.00 76 1007.1
20260504032642 47 225 9.0 15.0 0.00 0.00 0.00 77 1007.0
20260504031630 48 180 9.0 14.0 0.00 0.00 0.00 78 1007.1
20260504031124 48 237 8.0 13.0 0.00 0.00 0.00 75 1007.1
20260504030618 47 188 8.0 14.0 0.00 0.00 0.00 76 1007.1
20260504025606 47 211 9.0 15.0 0.00 0.00 0.00 80 1007.2
20260504025100 47 221 8.0 13.0 0.00 0.00 0.00 80 1007.3
20260504024555 47 234 8.0 12.0 0.00 0.00 0.00 80 1007.3
20260504024048 47 217 8.0 12.0 0.00 0.00 0.00 79 1007.4
20260504023544 47 228 8.0 12.0 0.00 0.00 0.00 78 1007.4
20260504023043 47 217 8.0 12.0 0.00 0.00 0.00 76 1007.5
20260504022024 47 209 8.0 13.0 0.00 0.00 0.00 77 1007.6
20260504021518 47 205 7.0 13.0 0.00 0.00 0.00 78 1007.5
20260504021012 46 213 8.0 11.0 0.00 0.00 0.00 80 1007.6
20260504020506 47 220 8.0 11.0 0.00 0.00 0.00 81 1007.6
20260504020000 47 208 8.0 11.0 0.00 0.00 0.00 80 1007.6
20260504014948 47 0 10.0 14.0 0.00 0.00 0.00 78 1007.6
20260504014444 47 216 10.0 15.0 0.00 0.00 0.00 77 1007.6
20260504013945 47 218 10.0 15.0 0.00 0.00 0.00 76 1007.6
20260504013444 47 223 10.0 15.0 0.00 0.00 0.00 75 1007.6
20260504012945 48 0 10.0 15.0 0.00 0.00 0.00 73 1007.7
20260504012444 48 221 9.0 14.0 0.00 0.00 0.00 72 1007.8
20260504011944 48 226 8.0 13.0 0.00 0.00 0.00 70 1007.8
20260504010944 49 216 8.0 13.0 0.00 0.00 0.00 69 1007.7
20260504010444 49 220 6.0 12.0 0.00 0.00 0.00 66 1007.6
20260504005944 49 202 6.0 11.0 0.00 0.00 0.00 60 1007.6
20260504005444 49 216 7.0 12.0 0.00 0.00 0.00 62 1007.6
20260504003944 48 0 11.0 17.0 0.00 0.00 0.00 68 1007.5
20260504003445 49 213 11.0 16.0 0.00 0.00 0.00 68 1007.6
20260504002444 50 194 11.0 16.0 0.00 0.00 0.00 57 1007.5
20260504001938 50 211 9.0 16.0 0.00 0.00 0.00 56 1007.5
20260504001433 51 236 9.0 17.0 0.00 0.00 0.00 51 1007.4
20260504000933 51 216 9.0 17.0 0.00 0.00 0.00 49 1007.4
20260503235932 51 219 9.0 20.0 0.00 0.00 0.00 50 1007.4
20260503234933 51 231 10.0 17.0 0.00 0.00 0.00 50 1007.4
20260503234434 51 216 9.0 17.0 0.00 0.00 0.00 49 1007.3
20260503233932 51 211 10.0 19.0 0.00 0.00 0.00 49 1007.3
20260503233432 52 198 10.0 19.0 0.00 0.00 0.00 47 1007.4
20260503232932 52 219 9.0 19.0 0.00 0.00 0.00 45 1007.4
20260503232432 52 0 10.0 19.0 0.00 0.00 0.00 45 1007.4
20260503231932 52 228 8.0 19.0 0.00 0.00 0.00 45 1007.3
20260503231432 52 238 8.0 19.0 0.00 0.00 0.00 45 1007.4
20260503230929 52 235 11.0 22.0 0.00 0.00 0.00 48 1007.4
20260503230428 52 205 10.0 22.0 0.00 0.00 0.00 45 1007.3
20260503225928 52 0 9.0 18.0 0.00 0.00 0.00 46 1007.4
20260503225428 52 239 9.0 20.0 0.00 0.00 0.00 46 1007.3
20260503224430 50 230 12.0 20.0 0.00 0.00 0.00 55 1007.3
20260503222931 49 221 13.0 18.0 0.00 0.00 0.00 65 1007.4
20260503222424 49 225 13.0 19.0 0.00 0.00 0.00 67 1007.5
20260503221924 49 0 12.0 19.0 0.00 0.00 0.00 69 1007.6
20260503220924 49 199 13.0 17.0 0.00 0.00 0.00 67 1007.6
20260503220424 49 203 14.0 18.0 0.00 0.00 0.00 65 1007.6
20260503215924 49 204 15.0 21.0 0.00 0.00 0.00 66 1007.7
20260503215424 49 207 15.0 21.0 0.00 0.00 0.00 65 1007.7
20260503214924 49 202 14.0 20.0 0.00 0.00 0.00 67 1007.7
20260503214426 49 190 14.0 20.0 0.00 0.00 0.00 68 1007.7